Hourly Weather Offenbach am Main

Today, 4 July, Saturday

Time Temperature Precipitation Wind Pressure Humidity
00:00 +18°C° 0 mm 2 mps 754 mmHg 68%
01:00 +17°C° 0 mm 2 mps 754 mmHg 72%
02:00 +17°C° 0 mm 2 mps 754 mmHg 75%
03:00 +16°C° 0 mm 1 mps 754 mmHg 78%
04:00 +15°C° 0 mm 1 mps 754 mmHg 81%
05:00 +16°C° 0 mm 2 mps 754 mmHg 77%
06:00 +17°C° 0 mm 2 mps 754 mmHg 73%
07:00 +18°C° 0 mm 3 mps 754 mmHg 69%
08:00 +19°C° 0 mm 3 mps 754 mmHg 64%
09:00 +21°C° 0 mm 4 mps 754 mmHg 59%
10:00 +22°C° 0 mm 5 mps 754 mmHg 54%
11:00 +23°C° 0 mm 5 mps 754 mmHg 52%
12:00 +25°C° 0 mm 5 mps 753 mmHg 50%
13:00 +26°C° 0 mm 5 mps 753 mmHg 47%
14:00 +26°C° 0 mm 5 mps 753 mmHg 48%
15:00 +26°C° 0 mm 5 mps 753 mmHg 50%
16:00 +26°C° 0 mm 5 mps 753 mmHg 51%
17:00 +25°C° 0 mm 4 mps 753 mmHg 53%
18:00 +23°C° 0 mm 4 mps 753 mmHg 55%
19:00 +22°C° 0 mm 4 mps 753 mmHg 58%
20:00 +21°C° 0 mm 3 mps 753 mmHg 61%
21:00 +21°C° 0 mm 3 mps 753 mmHg 64%
22:00 +20°C° 0 mm 3 mps 753 mmHg 67%
23:00 +20°C° 0 mm 3 mps 753 mmHg 68%

Tomorrow, 5 July, Sunday

Time Temperature Precipitation Wind Pressure Humidity
00:00 +20°C° 0 mm 3 mps 752 mmHg 70%
01:00 +20°C° 0 mm 3 mps 752 mmHg 72%
02:00 +20°C° 0 mm 3 mps 752 mmHg 74%
03:00 +20°C° 0 mm 4 mps 752 mmHg 75%
04:00 +20°C° 0 mm 4 mps 752 mmHg 77%
05:00 +20°C° 0 mm 4 mps 752 mmHg 78%
06:00 +20°C° 0 mm 4 mps 752 mmHg 79%
07:00 +20°C° 0 mm 4 mps 752 mmHg 80%
08:00 +21°C° 0 mm 4 mps 752 mmHg 79%
09:00 +21°C° 0 mm 4 mps 752 mmHg 77%
10:00 +22°C° 0 mm 5 mps 752 mmHg 76%
11:00 +22°C° 0.1 mm 5 mps 751 mmHg 74%
12:00 +22°C° 0.1 mm 5 mps 751 mmHg 72%
13:00 +23°C° 0.1 mm 5 mps 751 mmHg 71%
14:00 +23°C° 0.1 mm 5 mps 751 mmHg 67%
15:00 +25°C° 0.1 mm 5 mps 751 mmHg 64%
16:00 +26°C° 0.1 mm 5 mps 750 mmHg 61%
17:00 +25°C° 0 mm 5 mps 750 mmHg 61%
18:00 +25°C° 0 mm 5 mps 750 mmHg 62%
19:00 +25°C° 0 mm 5 mps 750 mmHg 63%
20:00 +23°C° 0 mm 5 mps 750 mmHg 66%
21:00 +22°C° 0 mm 4 mps 750 mmHg 68%
22:00 +22°C° 0 mm 4 mps 750 mmHg 71%
23:00 +21°C° 0.1 mm 4 mps 750 mmHg 74%

Day after tomorrow, 6 July, Monday

Time Temperature Precipitation Wind Pressure Humidity
00:00 +21°C° 0.1 mm 4 mps 749 mmHg 77%
01:00 +20°C° 0.1 mm 4 mps 749 mmHg 80%
02:00 +19°C° 0.1 mm 4 mps 749 mmHg 80%
03:00 +19°C° 0.1 mm 4 mps 749 mmHg 80%
04:00 +18°C° 0.1 mm 4 mps 749 mmHg 80%
05:00 +17°C° 0 mm 4 mps 749 mmHg 76%
06:00 +17°C° 0 mm 4 mps 750 mmHg 72%
07:00 +15°C° 0 mm 4 mps 750 mmHg 68%
08:00 +17°C° 0 mm 4 mps 750 mmHg 62%
09:00 +17°C° 0 mm 5 mps 750 mmHg 56%
10:00 +19°C° 0 mm 5 mps 751 mmHg 50%
11:00 +20°C° 0 mm 5 mps 751 mmHg 47%
12:00 +21°C° 0 mm 5 mps 751 mmHg 44%
13:00 +21°C° 0 mm 5 mps 751 mmHg 41%
14:00 +21°C° 0 mm 5 mps 751 mmHg 42%
15:00 +21°C° 0 mm 5 mps 751 mmHg 43%
16:00 +21°C° 0 mm 5 mps 752 mmHg 44%
17:00 +20°C° 0 mm 4 mps 752 mmHg 46%
18:00 +20°C° 0 mm 4 mps 752 mmHg 48%
19:00 +19°C° 0 mm 4 mps 753 mmHg 49%
20:00 +18°C° 0 mm 3 mps 753 mmHg 53%
21:00 +17°C° 0 mm 3 mps 754 mmHg 57%
22:00 +14°C° 0 mm 3 mps 755 mmHg 61%
23:00 +14°C° 0 mm 2 mps 755 mmHg 65%

7 July, Tuesday

Time Temperature Precipitation Wind Pressure Humidity
00:00 +14°C° 0 mm 2 mps 755 mmHg 69%
01:00 +13°C° 0 mm 1 mps 755 mmHg 74%
02:00 +12°C° 0 mm 1 mps 755 mmHg 75%
03:00 +12°C° 0 mm 1 mps 756 mmHg 77%
04:00 +12°C° 0 mm 1 mps 756 mmHg 79%
05:00 +13°C° 0 mm 1 mps 756 mmHg 76%
06:00 +14°C° 0 mm 1 mps 756 mmHg 72%
07:00 +15°C° 0 mm 1 mps 756 mmHg 68%
08:00 +18°C° 0 mm 1 mps 756 mmHg 61%
09:00 +19°C° 0 mm 1 mps 756 mmHg 55%
10:00 +21°C° 0 mm 1 mps 756 mmHg 48%
11:00 +21°C° 0 mm 2 mps 756 mmHg 45%
12:00 +23°C° 0 mm 2 mps 755 mmHg 41%
13:00 +24°C° 0 mm 2 mps 755 mmHg 37%
14:00 +24°C° 0 mm 2 mps 755 mmHg 36%
15:00 +24°C° 0 mm 2 mps 755 mmHg 36%
16:00 +24°C° 0 mm 3 mps 754 mmHg 35%
17:00 +24°C° 0 mm 2 mps 754 mmHg 40%
18:00 +23°C° 0 mm 2 mps 754 mmHg 44%
19:00 +21°C° 0 mm 2 mps 754 mmHg 49%
20:00 +19°C° 0 mm 2 mps 755 mmHg 52%
21:00 +19°C° 0 mm 1 mps 755 mmHg 56%
22:00 +18°C° 0 mm 1 mps 755 mmHg 59%
23:00 +16°C° 0 mm 1 mps 755 mmHg 63%

8 July, Wednesday

Time Temperature Precipitation Wind Pressure Humidity
00:00 +15°C° 0 mm 1 mps 756 mmHg 68%
01:00 +14°C° 0 mm 1 mps 756 mmHg 72%
02:00 +14°C° 0 mm 1 mps 756 mmHg 75%
03:00 +13°C° 0 mm 1 mps 756 mmHg 78%
04:00 +13°C° 0 mm 1 mps 756 mmHg 81%
05:00 +14°C° 0 mm 1 mps 756 mmHg 78%
06:00 +15°C° 0 mm 1 mps 756 mmHg 74%
07:00 +16°C° 0 mm 1 mps 756 mmHg 71%
08:00 +19°C° 0 mm 1 mps 756 mmHg 63%
09:00 +21°C° 0 mm 1 mps 756 mmHg 56%
10:00 +22°C° 0 mm 1 mps 756 mmHg 49%
11:00 +23°C° 0 mm 1 mps 756 mmHg 45%
12:00 +25°C° 0 mm 1 mps 755 mmHg 41%
13:00 +26°C° 0 mm 1 mps 755 mmHg 37%
14:00 +26°C° 0 mm 2 mps 755 mmHg 36%
15:00 +26°C° 0 mm 2 mps 754 mmHg 35%
16:00 +26°C° 0 mm 2 mps 754 mmHg 34%
17:00 +26°C° 0 mm 2 mps 754 mmHg 38%
18:00 +25°C° 0 mm 1 mps 754 mmHg 43%
19:00 +24°C° 0 mm 1 mps 754 mmHg 47%
20:00 +23°C° 0 mm 1 mps 754 mmHg 50%
21:00 +21°C° 0 mm 1 mps 754 mmHg 54%
22:00 +17°C° 0 mm 0 mps 754 mmHg 57%
23:00 +17°C° 0 mm 0 mps 754 mmHg 60%

9 July, Thursday

Time Temperature Precipitation Wind Pressure Humidity
00:00 +18°C° 0 mm 1 mps 754 mmHg 62%
01:00 +18°C° 0 mm 1 mps 754 mmHg 65%
02:00 +16°C° 0 mm 1 mps 754 mmHg 67%
03:00 +16°C° 0 mm 1 mps 754 mmHg 70%
04:00 +16°C° 0 mm 1 mps 754 mmHg 72%
05:00 +18°C° 0 mm 1 mps 753 mmHg 69%
06:00 +19°C° 0 mm 1 mps 753 mmHg 67%
07:00 +19°C° 0 mm 2 mps 753 mmHg 64%
08:00 +21°C° 0 mm 2 mps 753 mmHg 61%
09:00 +22°C° 0 mm 3 mps 754 mmHg 57%
10:00 +23°C° 0 mm 4 mps 754 mmHg 54%
11:00 +25°C° 0 mm 4 mps 754 mmHg 53%
12:00 +26°C° 0 mm 4 mps 754 mmHg 51%
13:00 +26°C° 0 mm 4 mps 754 mmHg 49%
14:00 +25°C° 0 mm 4 mps 754 mmHg 53%
15:00 +23°C° 0 mm 4 mps 754 mmHg 57%
16:00 +22°C° 0 mm 4 mps 753 mmHg 61%
17:00 +22°C° 0 mm 3 mps 753 mmHg 63%
18:00 +21°C° 0 mm 2 mps 754 mmHg 64%
19:00 +21°C° 0 mm 2 mps 754 mmHg 66%
20:00 +21°C° 0 mm 1 mps 754 mmHg 67%
21:00 +20°C° 0 mm 1 mps 754 mmHg 68%
22:00 +20°C° 0 mm 1 mps 755 mmHg 68%
23:00 +19°C° 0 mm 1 mps 754 mmHg 69%
Show more